Flag for Germany Weather past 2 weeks in Lippstadt, North Rhine-Westphalia, Germany

Now
39 °F

Light rain. Mostly cloudy.


Feels Like: 28 °F
Forecast: 33 / 38 °F
Wind: 29 mph from Southwest

Location: Paderborn / Lippstadt

Current Time: Jan 28, 2015 at 6:08:26 PM

Latest Report: Jan 28, 2015 at 5:20 PM


Visibility: N/A

Pressure: 29.42 "Hg

Humidity: 81%

Dew point: 34 °F

Location of LippstadtLocation

Historic Weather in Lippstadt — Graph

°F

Lippstadt temperature yesterday

Maximum temperature yesterday: 37 °F (at 12:50 PM)
Minimum temperature yesterday: 32 °F (at 6:50 AM)
Average temperature yesterday: 35 °F

Past Weeks' High & Low Weather Summary

 TemperatureHumidityPressure
High50 °F (Jan 15, 2:20 PM)100% (Jan 17, 6:20 AM)30.36 "Hg (Jan 17, 6:20 AM)
Low21 °F (Jan 24, 4:20 AM)58% (Jan 15, 2:20 PM)29.42 "Hg (Jan 28, 4:50 PM)
Average34 °F85%29.95 "Hg
* Reported Jan 13 4:20 PM — Jan 28 4:50 PM, Lippstadt, Weather by CustomWeather, © 2014

Note: Actual official high and low records may vary slightly from our data, if they occured in-between our weather recording intervals... More about our weather records

Advertising

Lippstadt weather history for previous 24 hours

 ConditionsComfort  
Time TempWeatherWind HumidityBarometerVisibility
4:50 PM
Jan 28
39 °FLight rain. More clouds than sun.23 mph81%29.42 "HgN/A
4:20 PM39 °FBroken clouds.21 mph75%29.45 "HgN/A
3:50 PM39 °FBroken clouds.28 mph75%29.47 "HgN/A
3:20 PM39 °FPartly sunny.23 mph75%29.50 "HgN/A
2:50 PM39 °FPartly sunny.22 mph75%29.56 "HgN/A
2:20 PM39 °FPartly sunny.22 mph81%29.62 "HgN/A
1:50 PM39 °FPartly sunny.21 mph81%29.62 "HgN/A
1:20 PM39 °FPartly sunny.22 mph81%29.68 "HgN/A
12:50 PM39 °FScattered clouds.20 mph81%29.71 "HgN/A
12:20 PM39 °FPartly sunny.22 mph81%29.74 "HgN/A
11:50 AM37 °FScattered clouds.18 mph87%29.77 "HgN/A
11:20 AM37 °FBroken clouds.18 mph93%29.80 "HgN/A
10:50 AM37 °FBroken clouds.22 mph87%29.83 "HgN/A
10:20 AM37 °FPartly sunny.18 mph87%29.86 "HgN/A
9:50 AM37 °FBroken clouds.16 mph87%29.86 "HgN/A
9:20 AM36 °FLight rain. Partly sunny.16 mph93%29.89 "HgN/A
8:50 AM36 °FPartly sunny.16 mph93%29.92 "HgN/A
8:20 AM36 °FDrizzle. Partly sunny.17 mph93%29.92 "HgN/A
7:50 AM36 °FPassing clouds.15 mph93%29.95 "HgN/A
7:20 AM36 °FPassing clouds.13 mph93%29.95 "HgN/A
6:50 AM36 °FPassing clouds.13 mph93%29.95 "HgN/A
6:20 AM36 °FPassing clouds.10 mph93%29.98 "HgN/A
5:50 AM36 °FPassing clouds.9 mph93%29.98 "HgN/A
5:20 AM36 °FPassing clouds.10 mph100%30.01 "HgN/A
4:50 AM36 °FPassing clouds.12 mph100%30.01 "HgN/A
4:20 AM36 °FPassing clouds.9 mph100%30.04 "HgN/A
3:50 AM36 °FPartly cloudy.9 mph100%30.07 "Hg5 mi
3:20 AM36 °FPartly cloudy.10 mph100%30.07 "Hg4 mi
2:50 AM36 °FPassing clouds.8 mph100%30.07 "Hg4 mi
2:20 AM36 °FPassing clouds.7 mph100%30.09 "Hg4 mi
1:50 AM36 °FFog.8 mph100%30.09 "Hg3 mi
1:20 AM36 °FFog.7 mph100%30.09 "Hg3 mi
12:50 AM36 °FFog.8 mph100%30.09 "Hg3 mi
12:20 AM36 °FLight rain. Fog.7 mph100%30.09 "Hg3 mi
11:50 PM
Jan 27
37 °FLight rain. Low clouds.7 mph93%30.12 "Hg4 mi
11:20 PM37 °FLight rain. Low clouds.8 mph93%30.12 "Hg4 mi
10:50 PM37 °FLight rain. Low clouds.8 mph93%30.12 "Hg4 mi
10:20 PM36 °FLight rain. Low clouds.8 mph100%30.12 "HgN/A
9:50 PM36 °FLight rain. Passing clouds.6 mph100%30.12 "HgN/A
9:20 PM36 °FLight rain. Passing clouds.6 mph100%30.12 "HgN/A
8:50 PM36 °FLight rain. Partly cloudy.7 mph100%30.12 "HgN/A
8:20 PM36 °FLight rain. Passing clouds.6 mph100%30.12 "HgN/A
7:50 PM36 °FLight rain. Partly cloudy.6 mph100%30.12 "HgN/A
7:20 PM36 °FLight rain. Passing clouds.6 mph100%30.12 "HgN/A
6:50 PM37 °FLight rain. Partly cloudy.7 mph93%30.12 "HgN/A
6:20 PM37 °FPassing clouds.6 mph93%30.12 "HgN/A
Weather by CustomWeather, © 2014

See weather overviewHow to use our weather pages